• In Deutschland
  • Länderverzeichnis
  • Für 7 Tage
  • Wassertemperatur
  • Satellitenkarten
  • Wetterkarte
  • Widgets
  • user-avatar
    Anmelden

    Stündliche Wetter Suhoy Ruchey

    Heute, 17 Juli, Dienstag

    Zeit Temperatur Niederschläge Wind Luftdruck Luftfeuchtigkeit
    00:00 +18°C° 0 mm 1 m/S 712 mmHg 92%
    01:00 +18°C° 0 mm 1 m/S 712 mmHg 94%
    02:00 +18°C° 0 mm 1 m/S 712 mmHg 93%
    03:00 +18°C° 0 mm 1 m/S 712 mmHg 93%
    04:00 +18°C° 0 mm 1 m/S 712 mmHg 92%
    05:00 +18°C° 0,1 mm 1 m/S 712 mmHg 90%
    06:00 +18°C° 0,1 mm 1 m/S 712 mmHg 89%
    07:00 +19°C° 0 mm 1 m/S 712 mmHg 85%
    08:00 +20°C° 0,1 mm 1 m/S 712 mmHg 81%
    09:00 +21°C° 0,1 mm 1 m/S 712 mmHg 77%
    10:00 +22°C° 0,1 mm 1 m/S 712 mmHg 73%
    11:00 +23°C° 0 mm 1 m/S 712 mmHg 69%
    12:00 +24°C° 0 mm 1 m/S 712 mmHg 65%
    13:00 +23°C° 0 mm 2 m/S 712 mmHg 67%
    14:00 +23°C° 0 mm 1 m/S 712 mmHg 67%
    15:00 +24°C° 0 mm 1 m/S 712 mmHg 68%
    16:00 +24°C° 0 mm 1 m/S 712 mmHg 68%
    17:00 +23°C° 0 mm 1 m/S 711 mmHg 72%
    18:00 +23°C° 0 mm 1 m/S 711 mmHg 76%
    19:00 +22°C° 0 mm 1 m/S 711 mmHg 80%
    20:00 +21°C° 0,1 mm 1 m/S 711 mmHg 85%
    21:00 +20°C° 0,1 mm 1 m/S 712 mmHg 89%
    22:00 +19°C° 0,1 mm 1 m/S 712 mmHg 93%
    23:00 +18°C° 0 mm 1 m/S 712 mmHg 94%

    Morgen, 18 Juli, Mittwoch

    Zeit Temperatur Niederschläge Wind Luftdruck Luftfeuchtigkeit
    00:00 +18°C° 0 mm 1 m/S 712 mmHg 95%
    01:00 +18°C° 0 mm 1 m/S 712 mmHg 95%
    02:00 +18°C° 0 mm 1 m/S 712 mmHg 95%
    03:00 +18°C° 0 mm 1 m/S 712 mmHg 95%
    04:00 +16°C° 0 mm 1 m/S 712 mmHg 95%
    05:00 +19°C° 0 mm 1 m/S 712 mmHg 89%
    06:00 +21°C° 0 mm 1 m/S 712 mmHg 84%
    07:00 +20°C° 0 mm 0 m/S 712 mmHg 78%
    08:00 +24°C° 0 mm 1 m/S 712 mmHg 71%
    09:00 +26°C° 0 mm 1 m/S 712 mmHg 64%
    10:00 +27°C° 0 mm 1 m/S 712 mmHg 57%
    11:00 +28°C° 0,1 mm 1 m/S 712 mmHg 55%
    12:00 +28°C° 0,1 mm 1 m/S 712 mmHg 52%
    13:00 +29°C° 0,1 mm 2 m/S 711 mmHg 50%
    14:00 +29°C° 0,1 mm 2 m/S 711 mmHg 50%
    15:00 +29°C° 0,1 mm 2 m/S 711 mmHg 49%
    16:00 +29°C° 0,1 mm 2 m/S 711 mmHg 49%
    17:00 +27°C° 0,1 mm 2 m/S 711 mmHg 57%
    18:00 +26°C° 0,1 mm 1 m/S 711 mmHg 64%
    19:00 +24°C° 0,1 mm 1 m/S 711 mmHg 72%
    20:00 +23°C° 0,1 mm 1 m/S 711 mmHg 76%
    21:00 +21°C° 0,1 mm 1 m/S 711 mmHg 79%
    22:00 +20°C° 0,1 mm 1 m/S 711 mmHg 83%
    23:00 +20°C° 0,1 mm 1 m/S 711 mmHg 85%

    übermorgen, 19 Juli, Donnerstag

    Zeit Temperatur Niederschläge Wind Luftdruck Luftfeuchtigkeit
    00:00 +19°C° 0,1 mm 1 m/S 711 mmHg 86%
    01:00 +19°C° 0,1 mm 1 m/S 711 mmHg 88%
    02:00 +19°C° 0 mm 1 m/S 711 mmHg 89%
    03:00 +18°C° 0 mm 1 m/S 711 mmHg 90%
    04:00 +18°C° 0 mm 1 m/S 711 mmHg 91%
    05:00 +20°C° 0 mm 1 m/S 711 mmHg 85%
    06:00 +20°C° 0 mm 0 m/S 711 mmHg 80%
    07:00 +21°C° 0 mm 0 m/S 711 mmHg 74%
    08:00 +24°C° 0,1 mm 1 m/S 711 mmHg 70%
    09:00 +25°C° 0,1 mm 1 m/S 711 mmHg 66%
    10:00 +27°C° 0,1 mm 2 m/S 711 mmHg 63%
    11:00 +28°C° 0,1 mm 2 m/S 710 mmHg 59%
    12:00 +28°C° 0,1 mm 2 m/S 710 mmHg 56%
    13:00 +29°C° 0,1 mm 2 m/S 710 mmHg 52%
    14:00 +28°C° 0,6 mm 2 m/S 709 mmHg 60%
    15:00 +27°C° 0,6 mm 2 m/S 709 mmHg 68%
    16:00 +26°C° 0,6 mm 1 m/S 709 mmHg 76%
    17:00 +25°C° 0,4 mm 1 m/S 708 mmHg 81%
    18:00 +24°C° 0,4 mm 1 m/S 708 mmHg 85%
    19:00 +21°C° 0,4 mm 0 m/S 708 mmHg 89%
    20:00 +20°C° 0,6 mm 0 m/S 708 mmHg 92%
    21:00 +19°C° 0,6 mm 0 m/S 708 mmHg 94%
    22:00 +19°C° 0,6 mm 0 m/S 707 mmHg 96%
    23:00 +20°C° 1 mm 1 m/S 707 mmHg 97%

    20 Juli, Freitag

    Zeit Temperatur Niederschläge Wind Luftdruck Luftfeuchtigkeit
    00:00 +20°C° 1 mm 1 m/S 707 mmHg 97%
    01:00 +20°C° 1 mm 1 m/S 707 mmHg 98%
    02:00 +20°C° 1,8 mm 1 m/S 707 mmHg 98%
    03:00 +19°C° 1,8 mm 2 m/S 706 mmHg 98%
    04:00 +19°C° 1,8 mm 2 m/S 706 mmHg 98%
    05:00 +18°C° 2,9 mm 2 m/S 706 mmHg 98%
    06:00 +18°C° 2,9 mm 2 m/S 706 mmHg 98%
    07:00 +17°C° 2,9 mm 2 m/S 706 mmHg 98%
    08:00 +17°C° 3,2 mm 2 m/S 706 mmHg 98%
    09:00 +17°C° 3,2 mm 2 m/S 707 mmHg 98%
    10:00 +17°C° 3,2 mm 2 m/S 707 mmHg 98%
    11:00 +17°C° 2,8 mm 2 m/S 707 mmHg 97%
    12:00 +17°C° 2,8 mm 2 m/S 707 mmHg 95%
    13:00 +17°C° 2,8 mm 2 m/S 707 mmHg 94%
    14:00 +17°C° 1,1 mm 2 m/S 707 mmHg 93%
    15:00 +18°C° 1,1 mm 2 m/S 707 mmHg 91%
    16:00 +18°C° 1,1 mm 2 m/S 707 mmHg 90%
    17:00 +17°C° 0,4 mm 2 m/S 707 mmHg 90%
    18:00 +17°C° 0,4 mm 2 m/S 707 mmHg 90%
    19:00 +17°C° 0,4 mm 2 m/S 707 mmHg 91%
    20:00 +17°C° 0,9 mm 2 m/S 708 mmHg 92%
    21:00 +16°C° 0,9 mm 2 m/S 708 mmHg 94%
    22:00 +16°C° 0,9 mm 3 m/S 708 mmHg 95%
    23:00 +16°C° 3,4 mm 3 m/S 708 mmHg 95%

    21 Juli, Samstag

    Zeit Temperatur Niederschläge Wind Luftdruck Luftfeuchtigkeit
    00:00 +16°C° 3,4 mm 3 m/S 708 mmHg 95%
    01:00 +16°C° 3,4 mm 3 m/S 708 mmHg 96%
    02:00 +15°C° 4,1 mm 4 m/S 708 mmHg 96%
    03:00 +14°C° 4,1 mm 4 m/S 708 mmHg 96%
    04:00 +14°C° 4,1 mm 4 m/S 708 mmHg 96%
    05:00 +14°C° 2,4 mm 4 m/S 708 mmHg 96%
    06:00 +14°C° 2,4 mm 4 m/S 708 mmHg 96%
    07:00 +14°C° 2,4 mm 4 m/S 709 mmHg 96%
    08:00 +15°C° 2 mm 4 m/S 709 mmHg 96%
    09:00 +15°C° 2 mm 4 m/S 709 mmHg 96%
    10:00 +15°C° 2 mm 4 m/S 710 mmHg 95%
    11:00 +17°C° 0,7 mm 4 m/S 710 mmHg 92%
    12:00 +18°C° 0,7 mm 4 m/S 710 mmHg 89%
    13:00 +19°C° 0,7 mm 4 m/S 711 mmHg 86%
    14:00 +20°C° 0,2 mm 4 m/S 711 mmHg 83%
    15:00 +20°C° 0,2 mm 4 m/S 711 mmHg 80%
    16:00 +21°C° 0,2 mm 3 m/S 711 mmHg 78%
    17:00 +20°C° 0,2 mm 3 m/S 712 mmHg 81%
    18:00 +20°C° 0,2 mm 2 m/S 712 mmHg 84%
    19:00 +20°C° 0,2 mm 1 m/S 712 mmHg 87%
    20:00 +18°C° 0 mm 2 m/S 712 mmHg 89%
    21:00 +17°C° 0 mm 2 m/S 713 mmHg 91%
    22:00 +16°C° 0 mm 2 m/S 713 mmHg 94%
    23:00 +15°C° 0 mm 2 m/S 713 mmHg 93%

    22 Juli, Sonntag

    Zeit Temperatur Niederschläge Wind Luftdruck Luftfeuchtigkeit
    00:00 +15°C° 0 mm 2 m/S 713 mmHg 93%
    01:00 +15°C° 0 mm 2 m/S 713 mmHg 93%
    02:00 +15°C° 0 mm 2 m/S 713 mmHg 93%
    03:00 +15°C° 0 mm 2 m/S 713 mmHg 92%
    04:00 +14°C° 0 mm 1 m/S 713 mmHg 92%
    05:00 +16°C° 0 mm 1 m/S 713 mmHg 88%
    06:00 +18°C° 0 mm 1 m/S 713 mmHg 84%
    07:00 +18°C° 0 mm 0 m/S 714 mmHg 81%
    08:00 +22°C° 0 mm 1 m/S 714 mmHg 72%
    09:00 +24°C° 0 mm 1 m/S 714 mmHg 62%
    10:00 +26°C° 0 mm 1 m/S 714 mmHg 53%
    11:00 +26°C° 0 mm 1 m/S 713 mmHg 52%
    12:00 +27°C° 0 mm 1 m/S 713 mmHg 50%
    13:00 +27°C° 0 mm 2 m/S 713 mmHg 49%
    14:00 +27°C° 0,1 mm 2 m/S 712 mmHg 51%
    15:00 +27°C° 0,1 mm 1 m/S 712 mmHg 54%
    16:00 +26°C° 0,1 mm 1 m/S 712 mmHg 56%
    17:00 +25°C° 0,1 mm 1 m/S 712 mmHg 63%
    18:00 +24°C° 0,1 mm 1 m/S 712 mmHg 70%
    19:00 +23°C° 0,1 mm 1 m/S 711 mmHg 77%
    20:00 +21°C° 0,3 mm 1 m/S 711 mmHg 80%
    21:00 +20°C° 0,3 mm 1 m/S 711 mmHg 84%
    22:00 +18°C° 0,3 mm 1 m/S 711 mmHg 87%
    23:00 +18°C° 0 mm 1 m/S 711 mmHg 87%
    Mehr zeigen